DAL2861 KSEA-KLAX

Flight info

Callsign DAL2861
Flight time 2h 27m
Altitude 35000
Route OZWLD1 OZWLD KPOWW SEA152033 JINMO Q7 JAGWA BURGL IRNMN2
Aircraft B738/M-SDE2E3FGHIRWXY/LB1

Departure

Time 2026-05-04 01:27
Airport Seattle–Tacoma International Airport (KSEA)

Arrival

Time 2026-05-04 03:54
Airport Los Angeles International Airport (KLAX)
Time Latitude Longitude Altitude Speed Heading
2026-05-04 00:55 47.43808 -122.29784 388 ft 0 kts 46°
2026-05-04 01:02 47.43800 -122.29797 388 ft 2 kts 46°
2026-05-04 01:02 47.43788 -122.29815 387 ft 2 kts 46°
2026-05-04 01:03 47.43777 -122.29832 387 ft 2 kts 58°
2026-05-04 01:03 47.43772 -122.29847 386 ft 2 kts 94°
2026-05-04 01:03 47.43775 -122.29862 386 ft 1 kts 137°
2026-05-04 01:03 47.43777 -122.29865 386 ft 0 kts 138°
2026-05-04 01:07 47.43772 -122.29868 386 ft 1 kts 203°
2026-05-04 01:07 47.43767 -122.29893 385 ft 5 kts 265°
2026-05-04 01:07 47.43764 -122.29968 384 ft 10 kts 267°
2026-05-04 01:08 47.43760 -122.30072 382 ft 6 kts 262°
2026-05-04 01:08 47.43754 -122.30122 382 ft 0 kts 258°
2026-05-04 01:10 47.43752 -122.30138 382 ft 3 kts 257°
2026-05-04 01:11 47.43746 -122.30173 381 ft 4 kts 256°
2026-05-04 01:11 47.43740 -122.30209 381 ft 4 kts 257°
2026-05-04 01:11 47.43735 -122.30245 381 ft 4 kts 257°
2026-05-04 01:11 47.43729 -122.30280 380 ft 4 kts 257°
2026-05-04 01:12 47.43721 -122.30345 380 ft 9 kts 263°
2026-05-04 01:12 47.43721 -122.30437 379 ft 7 kts 271°
2026-05-04 01:12 47.43722 -122.30471 379 ft 0 kts 271°
2026-05-04 01:20 47.43721 -122.30475 379 ft 3 kts 270°
2026-05-04 01:20 47.43722 -122.30543 378 ft 8 kts 271°
2026-05-04 01:20 47.43705 -122.30621 374 ft 4 kts 218°
2026-05-04 01:20 47.43668 -122.30634 372 ft 6 kts 175°
2026-05-04 01:21 47.43622 -122.30615 371 ft 7 kts 154°
2026-05-04 01:21 47.43578 -122.30577 370 ft 7 kts 154°
2026-05-04 01:21 47.43529 -122.30561 369 ft 8 kts 180°
2026-05-04 01:21 47.43469 -122.30560 367 ft 9 kts 178°
2026-05-04 01:22 47.43436 -122.30559 366 ft 1 kts 179°
2026-05-04 01:22 47.43416 -122.30559 368 ft 7 kts 180°
2026-05-04 01:22 47.43355 -122.30560 365 ft 10 kts 181°
2026-05-04 01:22 47.43289 -122.30560 365 ft 10 kts 181°
2026-05-04 01:23 47.43222 -122.30587 362 ft 11 kts 207°
2026-05-04 01:23 47.43213 -122.30594 359 ft 1 kts 210°
2026-05-04 01:23 47.43203 -122.30604 358 ft 3 kts 217°
2026-05-04 01:23 47.43181 -122.30650 360 ft 0 kts 249°
2026-05-04 01:26 47.43174 -122.30688 359 ft 8 kts 260°
2026-05-04 01:26 47.43195 -122.30783 361 ft 11 kts 314°
2026-05-04 01:26 47.43263 -122.30811 358 ft 10 kts 358°
2026-05-04 01:27 47.43365 -122.30807 366 ft 34 kts
2026-05-04 01:27 47.43868 -122.30803 378 ft 108 kts
2026-05-04 01:27 47.44834 -122.30808 438 ft 165 kts 358°
2026-05-04 01:27 47.46042 -122.30861 1059 ft 181 kts 358°
2026-05-04 01:28 47.47304 -122.30802 2047 ft 178 kts
2026-05-04 01:28 47.48522 -122.30633 2908 ft 180 kts
2026-05-04 01:28 47.49820 -122.30626 3422 ft 199 kts 357°
2026-05-04 01:28 47.51277 -122.30752 3739 ft 216 kts 357°
2026-05-04 01:29 47.52796 -122.30851 4284 ft 222 kts 358°
2026-05-04 01:29 47.54359 -122.30939 4891 ft 226 kts 358°
2026-05-04 01:29 47.55886 -122.31415 5536 ft 227 kts 334°
2026-05-04 01:29 47.57245 -122.32640 6183 ft 230 kts 327°
2026-05-04 01:30 47.58567 -122.34002 6817 ft 232 kts 326°
2026-05-04 01:30 47.59882 -122.35400 7435 ft 234 kts 320°
2026-05-04 01:30 47.60835 -122.37386 7868 ft 247 kts 292°
2026-05-04 01:30 47.61270 -122.39929 8385 ft 259 kts 282°
2026-05-04 01:31 47.61570 -122.42566 9191 ft 259 kts 281°
2026-05-04 01:31 47.61756 -122.45238 9905 ft 265 kts 266°
2026-05-04 01:31 47.61206 -122.47830 10516 ft 273 kts 240°
2026-05-04 01:31 47.60017 -122.50027 11171 ft 278 kts 227°
2026-05-04 01:32 47.58624 -122.52082 11801 ft 283 kts 225°
2026-05-04 01:32 47.57207 -122.54134 12483 ft 286 kts 226°
2026-05-04 01:32 47.55723 -122.56121 13141 ft 291 kts 212°
2026-05-04 01:32 47.53835 -122.57138 13804 ft 293 kts 184°
2026-05-04 01:33 47.51814 -122.56813 14369 ft 295 kts 160°
2026-05-04 01:33 47.49892 -122.55663 14958 ft 297 kts 155°
2026-05-04 01:33 47.48007 -122.54396 15598 ft 299 kts 154°
2026-05-04 01:33 47.46103 -122.53092 16161 ft 303 kts 154°
2026-05-04 01:34 47.44202 -122.51796 16768 ft 306 kts 154°
2026-05-04 01:34 47.42231 -122.50463 17372 ft 309 kts 154°
2026-05-04 01:34 47.40289 -122.49161 17980 ft 312 kts 154°
2026-05-04 01:34 47.38293 -122.47831 18508 ft 316 kts 154°
2026-05-04 01:35 47.36298 -122.46508 19035 ft 318 kts 154°
2026-05-04 01:35 47.34291 -122.45182 19573 ft 320 kts 154°
2026-05-04 01:35 47.32279 -122.43855 20085 ft 322 kts 154°
2026-05-04 01:35 47.30216 -122.42497 20623 ft 325 kts 154°
2026-05-04 01:36 47.28122 -122.41121 21128 ft 328 kts 154°
2026-05-04 01:36 47.27403 -122.40648 21304 ft 329 kts 154°
2026-05-04 01:36 47.25966 -122.39705 21651 ft 331 kts 154°
2026-05-04 01:37 47.25952 -122.39696 21661 ft 331 kts 154°
2026-05-04 01:37 47.23844 -122.38313 22144 ft 334 kts 154°
2026-05-04 01:37 47.21696 -122.36905 22660 ft 337 kts 154°
2026-05-04 01:38 47.19543 -122.35496 23149 ft 340 kts 154°
2026-05-04 01:38 47.17379 -122.34080 23620 ft 343 kts 154°
2026-05-04 01:38 47.15183 -122.32646 24042 ft 345 kts 154°
2026-05-04 01:38 47.12994 -122.31217 24481 ft 346 kts 154°
2026-05-04 01:39 47.10778 -122.29771 24899 ft 348 kts 154°
2026-05-04 01:39 47.08543 -122.28314 25136 ft 358 kts 154°
2026-05-04 01:39 47.06255 -122.26818 25211 ft 371 kts 154°
2026-05-04 01:39 47.05520 -122.26336 25244 ft 375 kts 154°
2026-05-04 01:40 47.04467 -122.25649 25279 ft 380 kts 154°
2026-05-04 01:40 47.01998 -122.24044 25369 ft 393 kts 154°
2026-05-04 01:40 46.99591 -122.22487 25464 ft 404 kts 154°
2026-05-04 01:41 46.98659 -122.21871 25484 ft 408 kts 152°
2026-05-04 01:41 46.96172 -122.19775 25540 ft 418 kts 142°
2026-05-04 01:41 46.93868 -122.17196 25624 ft 427 kts 140°
2026-05-04 01:42 46.91421 -122.14723 25670 ft 440 kts 150°
2026-05-04 01:42 46.88510 -122.13025 25742 ft 453 kts 165°
2026-05-04 01:42 46.85448 -122.12408 25800 ft 463 kts 178°
2026-05-04 01:42 46.85383 -122.12405 25802 ft 463 kts 178°
2026-05-04 01:43 46.82179 -122.12405 25891 ft 471 kts 180°
2026-05-04 01:43 46.78825 -122.12483 26093 ft 476 kts 180°
2026-05-04 01:43 46.75503 -122.12559 26410 ft 477 kts 180°
2026-05-04 01:43 46.72188 -122.12607 26750 ft 477 kts 179°
2026-05-04 01:44 46.68853 -122.12626 27042 ft 479 kts 179°
2026-05-04 01:44 46.65516 -122.12623 27314 ft 481 kts 179°
2026-05-04 01:44 46.62152 -122.12608 27595 ft 483 kts 179°
2026-05-04 01:44 46.58842 -122.12591 27854 ft 485 kts 179°
2026-05-04 01:45 46.55415 -122.12573 28125 ft 486 kts 179°
2026-05-04 01:45 46.52042 -122.12558 28469 ft 486 kts 179°
2026-05-04 01:45 46.45298 -122.12531 29319 ft 482 kts 178°
2026-05-04 01:46 46.42037 -122.12519 29674 ft 481 kts 178°
2026-05-04 01:46 46.38636 -122.12505 30005 ft 481 kts 178°
2026-05-04 01:46 46.35323 -122.12219 30281 ft 479 kts 170°
2026-05-04 01:46 46.32013 -122.11465 30575 ft 479 kts 168°
2026-05-04 01:47 46.28733 -122.10643 30875 ft 478 kts 168°
2026-05-04 01:47 46.25476 -122.09809 31140 ft 478 kts 168°
2026-05-04 01:47 46.22175 -122.08970 31374 ft 478 kts 168°
2026-05-04 01:47 46.18890 -122.08152 31643 ft 478 kts 168°
2026-05-04 01:48 46.15629 -122.07354 31934 ft 478 kts 168°
2026-05-04 01:48 46.12344 -122.06563 32221 ft 477 kts 168°
2026-05-04 01:48 46.09051 -122.05776 32472 ft 477 kts 168°
2026-05-04 01:48 46.05781 -122.04998 32743 ft 477 kts 168°
2026-05-04 01:49 46.02548 -122.04232 33025 ft 476 kts 168°
2026-05-04 01:49 45.99247 -122.03449 33319 ft 475 kts 168°
2026-05-04 01:49 45.95990 -122.02677 33589 ft 474 kts 168°
2026-05-04 01:49 45.92765 -122.01914 33846 ft 474 kts 168°
2026-05-04 01:50 45.89550 -122.01152 34065 ft 473 kts 168°
2026-05-04 01:50 45.86285 -122.00380 34294 ft 473 kts 168°
2026-05-04 01:50 45.83036 -121.99613 34497 ft 473 kts 168°
2026-05-04 01:50 45.79793 -121.98847 34696 ft 472 kts 168°
2026-05-04 01:51 45.76554 -121.98084 34832 ft 473 kts 168°
2026-05-04 01:51 45.73304 -121.97318 34824 ft 474 kts 168°
2026-05-04 01:51 45.66799 -121.95790 34814 ft 471 kts 168°
2026-05-04 01:52 45.60347 -121.94279 34831 ft 467 kts 168°
2026-05-04 01:52 45.55016 -121.93032 34830 ft 465 kts 168°
2026-05-04 01:53 45.48629 -121.91541 34837 ft 464 kts 168°
2026-05-04 01:53 45.41219 -121.89815 34850 ft 464 kts 168°
2026-05-04 01:54 45.35908 -121.88580 34848 ft 465 kts 168°
2026-05-04 01:54 45.29478 -121.87088 34854 ft 465 kts 168°
2026-05-04 01:55 45.23125 -121.85619 34855 ft 466 kts 168°
2026-05-04 01:55 45.16724 -121.84142 34869 ft 467 kts 168°
2026-05-04 01:56 45.10285 -121.82660 34868 ft 468 kts 168°
2026-05-04 01:56 45.03842 -121.81180 34875 ft 469 kts 168°
2026-05-04 01:57 44.97388 -121.79701 34869 ft 469 kts 168°
2026-05-04 01:57 44.90973 -121.78234 34875 ft 470 kts 168°
2026-05-04 01:58 44.84539 -121.76766 34879 ft 469 kts 168°
2026-05-04 01:58 44.78063 -121.75292 34879 ft 469 kts 168°
2026-05-04 01:59 44.71682 -121.73843 34886 ft 468 kts 168°
2026-05-04 01:59 44.65237 -121.72382 34881 ft 467 kts 168°
2026-05-04 02:00 44.58817 -121.70930 34887 ft 466 kts 167°
2026-05-04 02:00 44.52404 -121.69483 34883 ft 465 kts 167°
2026-05-04 02:01 44.46018 -121.68045 34885 ft 464 kts 167°
2026-05-04 02:01 44.39652 -121.66614 34892 ft 464 kts 167°
2026-05-04 02:02 44.33273 -121.65184 34891 ft 464 kts 167°
2026-05-04 02:02 44.32986 -121.65120 34897 ft 464 kts 167°
2026-05-04 02:03 44.28670 -121.64135 34890 ft 464 kts 167°
2026-05-04 02:03 44.22275 -121.62645 34898 ft 464 kts 167°
2026-05-04 02:04 44.15925 -121.61165 34905 ft 464 kts 167°
2026-05-04 02:04 44.09539 -121.59685 34902 ft 464 kts 167°
2026-05-04 02:05 44.03134 -121.58207 34905 ft 464 kts 167°
2026-05-04 02:05 43.96763 -121.56741 34907 ft 464 kts 167°
2026-05-04 02:06 43.90403 -121.55280 34903 ft 464 kts 168°
2026-05-04 02:06 43.84026 -121.53818 34900 ft 463 kts 168°
2026-05-04 02:07 43.77699 -121.52371 34896 ft 463 kts 168°
2026-05-04 02:07 43.71359 -121.50924 34904 ft 462 kts 168°
2026-05-04 02:08 43.65003 -121.49476 34906 ft 462 kts 169°
2026-05-04 02:08 43.58667 -121.48036 34902 ft 461 kts 169°
2026-05-04 02:09 43.54049 -121.46988 34904 ft 461 kts 169°
2026-05-04 02:09 43.48407 -121.45710 34905 ft 461 kts 169°
2026-05-04 02:10 43.42086 -121.44282 34904 ft 461 kts 169°
2026-05-04 02:10 43.35747 -121.42852 34906 ft 462 kts 169°
2026-05-04 02:11 43.29373 -121.41417 34910 ft 463 kts 169°
2026-05-04 02:11 43.23056 -121.39999 34906 ft 464 kts 169°
2026-05-04 02:12 43.16684 -121.38571 34904 ft 465 kts 169°
2026-05-04 02:12 43.10298 -121.37143 34895 ft 465 kts 169°
2026-05-04 02:13 43.03887 -121.35711 34903 ft 466 kts 169°
2026-05-04 02:13 42.97486 -121.34286 34890 ft 466 kts 170°
2026-05-04 02:14 42.91101 -121.32867 34894 ft 465 kts 170°
2026-05-04 02:14 42.84739 -121.31457 34895 ft 464 kts 170°
2026-05-04 02:15 42.78398 -121.30056 34880 ft 462 kts 170°
2026-05-04 02:15 42.72049 -121.28656 34882 ft 460 kts 170°
2026-05-04 02:16 42.65764 -121.27272 34895 ft 459 kts 170°
2026-05-04 02:16 42.59448 -121.25885 34890 ft 458 kts 170°
2026-05-04 02:17 42.53157 -121.24505 34889 ft 457 kts 170°
2026-05-04 02:17 42.46896 -121.23135 34882 ft 457 kts 170°
2026-05-04 02:18 42.40614 -121.21763 34889 ft 457 kts 169°
2026-05-04 02:18 42.34332 -121.20394 34889 ft 457 kts 169°
2026-05-04 02:19 42.28076 -121.19033 34887 ft 458 kts 169°
2026-05-04 02:19 42.21806 -121.17672 34893 ft 458 kts 169°
2026-05-04 02:20 42.15483 -121.16302 34889 ft 459 kts 169°
2026-05-04 02:20 42.09161 -121.14936 34877 ft 459 kts 169°
2026-05-04 02:21 42.02852 -121.13574 34878 ft 460 kts 169°
2026-05-04 02:21 41.96525 -121.12212 34880 ft 460 kts 169°
2026-05-04 02:22 41.90238 -121.10861 34876 ft 460 kts 169°
2026-05-04 02:22 41.83876 -121.09497 34871 ft 459 kts 169°
2026-05-04 02:23 41.77614 -121.08157 34866 ft 459 kts 169°
2026-05-04 02:23 41.71316 -121.06812 34863 ft 458 kts 169°
2026-05-04 02:24 41.65008 -121.05467 34858 ft 457 kts 169°
2026-05-04 02:24 41.58726 -121.04130 34856 ft 456 kts 169°
2026-05-04 02:25 41.52446 -121.02797 34856 ft 456 kts 169°
2026-05-04 02:25 41.46219 -121.01477 34855 ft 455 kts 169°
2026-05-04 02:26 41.39983 -121.00158 34852 ft 454 kts 169°
2026-05-04 02:26 41.33732 -120.98838 34845 ft 454 kts 169°
2026-05-04 02:27 41.27493 -120.97523 34839 ft 454 kts 169°
2026-05-04 02:27 41.21255 -120.96211 34838 ft 453 kts 169°
2026-05-04 02:28 41.15022 -120.94903 34840 ft 453 kts 169°
2026-05-04 02:28 41.08837 -120.93607 34844 ft 452 kts 168°
2026-05-04 02:29 41.02620 -120.92306 34844 ft 452 kts 168°
2026-05-04 02:29 40.96382 -120.91320 34857 ft 452 kts 173°
2026-05-04 02:30 40.90115 -120.90859 34860 ft 452 kts 175°
2026-05-04 02:30 40.83824 -120.90445 34868 ft 451 kts 174°
2026-05-04 02:31 40.77536 -120.89983 34881 ft 451 kts 174°
2026-05-04 02:31 40.71288 -120.89492 34894 ft 450 kts 174°
2026-05-04 02:32 40.65039 -120.88993 34903 ft 449 kts 174°
2026-05-04 02:32 40.58828 -120.88497 34921 ft 448 kts 174°
2026-05-04 02:33 40.52601 -120.88003 34947 ft 447 kts 174°
2026-05-04 02:33 40.46380 -120.87510 34953 ft 447 kts 173°
2026-05-04 02:34 40.40176 -120.87019 34959 ft 446 kts 173°
2026-05-04 02:34 40.33994 -120.86532 34961 ft 445 kts 173°
2026-05-04 02:35 40.27811 -120.86045 34967 ft 445 kts 173°
2026-05-04 02:35 40.21614 -120.85558 34966 ft 445 kts 173°
2026-05-04 02:36 40.15423 -120.85072 34971 ft 447 kts 173°
2026-05-04 02:36 40.09238 -120.84587 34965 ft 448 kts 173°
2026-05-04 02:37 40.02981 -120.84098 34967 ft 450 kts 173°
2026-05-04 02:37 39.96718 -120.83609 34961 ft 452 kts 173°
2026-05-04 02:38 39.90414 -120.83118 34960 ft 454 kts 173°
2026-05-04 02:38 39.84096 -120.82627 34949 ft 455 kts 173°
2026-05-04 02:39 39.77800 -120.82139 34949 ft 457 kts 173°
2026-05-04 02:39 39.71441 -120.81646 34940 ft 458 kts 173°
2026-05-04 02:40 39.65077 -120.81154 34933 ft 458 kts 173°
2026-05-04 02:40 39.59790 -120.80746 34936 ft 458 kts 174°
2026-05-04 02:41 39.53427 -120.80256 34957 ft 458 kts 174°
2026-05-04 02:41 39.47068 -120.79767 34975 ft 457 kts 174°
2026-05-04 02:42 39.40749 -120.79282 34995 ft 457 kts 174°
2026-05-04 02:42 39.34389 -120.78795 35016 ft 456 kts 174°
2026-05-04 02:43 39.28053 -120.78310 35019 ft 456 kts 174°
2026-05-04 02:43 39.21721 -120.77827 35015 ft 455 kts 174°
2026-05-04 02:44 39.15391 -120.77344 34998 ft 455 kts 175°
2026-05-04 02:44 39.09079 -120.76864 34983 ft 454 kts 175°
2026-05-04 02:45 39.02818 -120.76389 34955 ft 453 kts 175°
2026-05-04 02:45 38.96521 -120.75911 34953 ft 452 kts 175°
2026-05-04 02:46 38.90230 -120.75435 34976 ft 451 kts 175°
2026-05-04 02:46 38.83967 -120.74962 34994 ft 451 kts 175°
2026-05-04 02:47 38.77713 -120.74491 35007 ft 450 kts 175°
2026-05-04 02:47 38.71480 -120.74021 35016 ft 448 kts 175°
2026-05-04 02:48 38.65246 -120.73553 35010 ft 447 kts 175°
2026-05-04 02:48 38.59050 -120.73088 34995 ft 446 kts 175°
2026-05-04 02:49 38.52882 -120.72626 34968 ft 445 kts 175°
2026-05-04 02:49 38.46697 -120.72163 34977 ft 445 kts 176°
2026-05-04 02:50 38.40504 -120.71701 34979 ft 444 kts 176°
2026-05-04 02:50 38.34363 -120.71243 34983 ft 444 kts 176°
2026-05-04 02:51 38.28195 -120.70784 34977 ft 444 kts 177°
2026-05-04 02:51 38.22026 -120.70326 34972 ft 444 kts 177°
2026-05-04 02:52 38.15854 -120.69869 34971 ft 444 kts 178°
2026-05-04 02:52 38.09687 -120.69412 34971 ft 444 kts 178°
2026-05-04 02:53 38.03526 -120.68957 34970 ft 444 kts 178°
2026-05-04 02:53 37.97352 -120.68502 34958 ft 444 kts 179°
2026-05-04 02:54 37.91218 -120.68050 34947 ft 443 kts 179°
2026-05-04 02:54 37.85051 -120.67596 34932 ft 443 kts 179°
2026-05-04 02:55 37.75811 -120.66918 34922 ft 442 kts 180°
2026-05-04 02:56 37.69709 -120.66472 34924 ft 442 kts 180°
2026-05-04 02:56 37.63568 -120.66023 34925 ft 441 kts 181°
2026-05-04 02:57 37.57446 -120.65576 34922 ft 440 kts 181°
2026-05-04 02:57 37.51338 -120.65131 34921 ft 439 kts 181°
2026-05-04 02:58 37.45234 -120.64687 34919 ft 438 kts 182°
2026-05-04 02:58 37.39150 -120.64246 34923 ft 437 kts 182°
2026-05-04 02:59 37.33166 -120.62841 34926 ft 449 kts 166°
2026-05-04 02:59 37.27582 -120.59118 34922 ft 463 kts 152°
2026-05-04 03:00 37.22353 -120.54312 34911 ft 465 kts 151°
2026-05-04 03:00 37.17154 -120.49495 34913 ft 465 kts 152°
2026-05-04 03:01 37.11908 -120.44722 34903 ft 459 kts 153°
2026-05-04 03:01 37.09397 -120.42445 34893 ft 444 kts 153°
2026-05-04 03:01 37.06933 -120.40215 34899 ft 429 kts 154°
2026-05-04 03:01 37.04553 -120.38067 34900 ft 415 kts 155°
2026-05-04 03:02 37.02245 -120.35990 34911 ft 402 kts 155°
2026-05-04 03:02 36.97704 -120.31939 34944 ft 404 kts 156°
2026-05-04 03:03 36.93064 -120.27807 34949 ft 413 kts 156°
2026-05-04 03:03 36.88370 -120.23601 34938 ft 415 kts 156°
2026-05-04 03:04 36.83697 -120.19418 34938 ft 416 kts 156°
2026-05-04 03:04 36.78979 -120.15214 34925 ft 416 kts 157°
2026-05-04 03:05 36.74267 -120.11027 34914 ft 415 kts 157°
2026-05-04 03:05 36.69583 -120.06867 34915 ft 413 kts 158°
2026-05-04 03:06 36.65101 -120.02256 34912 ft 436 kts 140°
2026-05-04 03:06 36.63420 -119.99007 34926 ft 454 kts 126°
2026-05-04 03:06 36.62317 -119.95311 34921 ft 470 kts 111°
2026-05-04 03:06 36.61842 -119.91232 34930 ft 482 kts 96°
2026-05-04 03:07 36.62173 -119.87046 34923 ft 493 kts 76°
2026-05-04 03:07 36.63527 -119.83109 34925 ft 495 kts 52°
2026-05-04 03:07 36.65811 -119.79967 34950 ft 485 kts 29°
2026-05-04 03:07 36.68699 -119.77995 34942 ft 464 kts
2026-05-04 03:08 36.71736 -119.77401 34941 ft 433 kts 343°
2026-05-04 03:08 36.74575 -119.78164 34931 ft 396 kts 320°
2026-05-04 03:08 36.76707 -119.79984 34972 ft 367 kts 304°
2026-05-04 03:09 36.80477 -119.84401 34935 ft 368 kts 303°
2026-05-04 03:09 36.83821 -119.88969 34923 ft 347 kts 294°
2026-05-04 03:09 36.85017 -119.91502 34927 ft 334 kts 283°
2026-05-04 03:10 36.85732 -119.94212 34934 ft 324 kts 274°
2026-05-04 03:10 36.86156 -119.99733 34935 ft 316 kts 261°
2026-05-04 03:11 36.85209 -120.05040 34937 ft 313 kts 251°
2026-05-04 03:11 36.83963 -120.10267 34941 ft 315 kts 251°
2026-05-04 03:12 36.82716 -120.15533 34940 ft 317 kts 251°
2026-05-04 03:12 36.81108 -120.20618 34945 ft 317 kts 236°
2026-05-04 03:13 36.78175 -120.24716 34938 ft 321 kts 226°
2026-05-04 03:13 36.74399 -120.27801 34926 ft 334 kts 211°
2026-05-04 03:13 36.72148 -120.28665 34920 ft 345 kts 201°
2026-05-04 03:14 36.69720 -120.28944 34922 ft 358 kts 190°
2026-05-04 03:14 36.67193 -120.28585 34919 ft 374 kts 180°
2026-05-04 03:14 36.64665 -120.27536 34924 ft 391 kts 168°
2026-05-04 03:14 36.62272 -120.25763 34916 ft 411 kts 155°
2026-05-04 03:15 36.60160 -120.23241 34923 ft 433 kts 140°
2026-05-04 03:15 36.56079 -120.18108 34925 ft 394 kts 171°
2026-05-04 03:15 36.53508 -120.17304 34937 ft 362 kts 191°
2026-05-04 03:16 36.51001 -120.17252 34938 ft 364 kts 191°
2026-05-04 03:16 36.45831 -120.16979 34928 ft 379 kts 189°
2026-05-04 03:17 36.40523 -120.16574 34938 ft 390 kts 189°
2026-05-04 03:17 36.35020 -120.16134 34937 ft 400 kts 188°
2026-05-04 03:18 36.29395 -120.15688 34935 ft 409 kts 188°
2026-05-04 03:18 36.23646 -120.15236 34934 ft 417 kts 188°
2026-05-04 03:19 36.17872 -120.14782 34936 ft 423 kts 188°
2026-05-04 03:19 36.11945 -120.14314 34931 ft 425 kts 188°
2026-05-04 03:20 36.06027 -120.13850 34935 ft 426 kts 188°
2026-05-04 03:20 36.00108 -120.13387 34950 ft 426 kts 188°
2026-05-04 03:21 35.94188 -120.12928 34948 ft 425 kts 188°
2026-05-04 03:21 35.88329 -120.12474 34957 ft 423 kts 188°
2026-05-04 03:22 35.82458 -120.12021 34963 ft 423 kts 188°
2026-05-04 03:22 35.76598 -120.11569 34970 ft 421 kts 188°
2026-05-04 03:23 35.70764 -120.11120 34981 ft 421 kts 188°
2026-05-04 03:23 35.67819 -120.10782 34969 ft 432 kts 181°
2026-05-04 03:23 35.64873 -120.09603 34986 ft 456 kts 166°
2026-05-04 03:23 35.62076 -120.07649 34997 ft 467 kts 161°
2026-05-04 03:24 35.59308 -120.05520 34981 ft 469 kts 160°
2026-05-04 03:24 35.53811 -120.01209 34978 ft 469 kts 160°
2026-05-04 03:25 35.48285 -119.96979 34973 ft 469 kts 161°
2026-05-04 03:25 35.42691 -119.92771 34970 ft 469 kts 161°
2026-05-04 03:26 35.37156 -119.88623 34980 ft 469 kts 162°
2026-05-04 03:26 35.31579 -119.84443 34985 ft 470 kts 162°
2026-05-04 03:26 35.28769 -119.82338 34578 ft 479 kts 161°
2026-05-04 03:27 35.26000 -119.80022 34030 ft 486 kts 158°
2026-05-04 03:27 35.23275 -119.77488 33253 ft 491 kts 155°
2026-05-04 03:27 35.20593 -119.74889 32541 ft 492 kts 154°
2026-05-04 03:27 35.17921 -119.72289 31812 ft 492 kts 154°
2026-05-04 03:28 35.15221 -119.69695 31086 ft 492 kts 154°
2026-05-04 03:28 35.12517 -119.67136 30360 ft 492 kts 153°
2026-05-04 03:28 35.09854 -119.64641 29802 ft 487 kts 153°
2026-05-04 03:28 35.07168 -119.62136 29164 ft 482 kts 153°
2026-05-04 03:29 35.04518 -119.59672 28630 ft 475 kts 153°
2026-05-04 03:29 35.01908 -119.57248 28086 ft 469 kts 153°
2026-05-04 03:29 35.00211 -119.55674 27722 ft 465 kts 153°
2026-05-04 03:29 34.96782 -119.52497 27011 ft 459 kts 153°
2026-05-04 03:30 34.95101 -119.50940 26662 ft 455 kts 153°
2026-05-04 03:30 34.92545 -119.48572 26128 ft 451 kts 153°
2026-05-04 03:30 34.90092 -119.46315 25660 ft 445 kts 154°
2026-05-04 03:30 34.87623 -119.44093 25229 ft 439 kts 154°
2026-05-04 03:31 34.85159 -119.41900 24807 ft 434 kts 154°
2026-05-04 03:31 34.82744 -119.39753 24382 ft 430 kts 154°
2026-05-04 03:31 34.80346 -119.37618 23951 ft 426 kts 154°
2026-05-04 03:31 34.77962 -119.35492 23507 ft 424 kts 154°
2026-05-04 03:32 34.75596 -119.33381 23038 ft 419 kts 154°
2026-05-04 03:32 34.73248 -119.31298 22566 ft 413 kts 154°
2026-05-04 03:32 34.70955 -119.29295 22133 ft 408 kts 154°
2026-05-04 03:32 34.68635 -119.27274 21709 ft 403 kts 153°
2026-05-04 03:33 34.66373 -119.25302 21297 ft 397 kts 153°
2026-05-04 03:33 34.64182 -119.23396 20913 ft 392 kts 153°
2026-05-04 03:33 34.61947 -119.21467 20494 ft 388 kts 153°
2026-05-04 03:33 34.59756 -119.19582 20112 ft 384 kts 152°
2026-05-04 03:34 34.57591 -119.17719 19718 ft 381 kts 152°
2026-05-04 03:34 34.55421 -119.15843 19325 ft 378 kts 151°
2026-05-04 03:34 34.53337 -119.14002 18964 ft 375 kts 150°
2026-05-04 03:34 34.51209 -119.12109 18570 ft 373 kts 150°
2026-05-04 03:35 34.49125 -119.10256 18168 ft 370 kts 150°
2026-05-04 03:35 34.47051 -119.08418 17729 ft 367 kts 149°
2026-05-04 03:35 34.44991 -119.06596 17342 ft 364 kts 149°
2026-05-04 03:35 34.42949 -119.04803 16948 ft 360 kts 150°
2026-05-04 03:36 34.40954 -119.03075 16577 ft 357 kts 150°
2026-05-04 03:36 34.38933 -119.01329 16199 ft 353 kts 150°
2026-05-04 03:36 34.36944 -118.99610 15841 ft 350 kts 149°
2026-05-04 03:36 34.34965 -118.97899 15476 ft 346 kts 149°
2026-05-04 03:37 34.33026 -118.96194 15134 ft 343 kts 148°
2026-05-04 03:37 34.31127 -118.94466 14777 ft 341 kts 147°
2026-05-04 03:37 34.29243 -118.92744 14423 ft 338 kts 147°
2026-05-04 03:37 34.27360 -118.91030 14076 ft 336 kts 147°
2026-05-04 03:38 34.25499 -118.89341 13727 ft 334 kts 147°
2026-05-04 03:38 34.23652 -118.87650 13334 ft 333 kts 147°
2026-05-04 03:38 34.21810 -118.85954 12975 ft 330 kts 146°
2026-05-04 03:38 34.20006 -118.84293 12615 ft 326 kts 146°
2026-05-04 03:39 34.18201 -118.82637 12281 ft 326 kts 146°
2026-05-04 03:39 34.16395 -118.80974 11951 ft 327 kts 145°
2026-05-04 03:39 34.14653 -118.79181 11616 ft 328 kts 141°
2026-05-04 03:39 34.12984 -118.77339 11283 ft 330 kts 141°
2026-05-04 03:40 34.11314 -118.75479 10947 ft 332 kts 140°
2026-05-04 03:40 34.09582 -118.73565 10610 ft 332 kts 141°
2026-05-04 03:40 34.07869 -118.71692 10279 ft 333 kts 141°
2026-05-04 03:40 34.06144 -118.69818 10028 ft 332 kts 141°
2026-05-04 03:41 34.04431 -118.67945 9986 ft 331 kts 138°
2026-05-04 03:41 34.03136 -118.65703 9997 ft 322 kts 116°
2026-05-04 03:41 34.02600 -118.63167 10003 ft 305 kts 99°
2026-05-04 03:41 34.02385 -118.60729 9980 ft 288 kts 98°
2026-05-04 03:42 34.02183 -118.58326 9644 ft 284 kts 98°
2026-05-04 03:42 34.01972 -118.55972 9108 ft 287 kts 98°
2026-05-04 03:42 34.01752 -118.53544 8679 ft 285 kts 98°
2026-05-04 03:42 34.01538 -118.51234 8304 ft 282 kts 98°
2026-05-04 03:43 34.01318 -118.48890 7901 ft 280 kts 97°
2026-05-04 03:43 34.01099 -118.46565 7510 ft 279 kts 97°
2026-05-04 03:43 34.01164 -118.44239 7116 ft 277 kts 80°
2026-05-04 03:43 34.01564 -118.41982 6775 ft 274 kts 77°
2026-05-04 03:44 34.01984 -118.39794 6658 ft 262 kts 77°
2026-05-04 03:44 34.02371 -118.37697 6478 ft 254 kts 77°
2026-05-04 03:44 34.02741 -118.35614 6158 ft 251 kts 79°
2026-05-04 03:44 34.02996 -118.33544 5825 ft 248 kts 83°
2026-05-04 03:45 34.03192 -118.31518 5705 ft 237 kts 84°
2026-05-04 03:45 34.03377 -118.29566 5437 ft 233 kts 84°
2026-05-04 03:45 34.03573 -118.27649 5191 ft 228 kts 84°
2026-05-04 03:45 34.03756 -118.25747 4886 ft 226 kts 84°
2026-05-04 03:46 34.03930 -118.23885 4596 ft 222 kts 84°
2026-05-04 03:46 34.04101 -118.22028 4206 ft 224 kts 84°
2026-05-04 03:46 34.04271 -118.20176 3863 ft 224 kts 84°
2026-05-04 03:46 34.04446 -118.18297 3526 ft 224 kts 84°
2026-05-04 03:47 34.04629 -118.16440 3192 ft 224 kts 83°
2026-05-04 03:47 34.04820 -118.14563 2812 ft 226 kts 83°
2026-05-04 03:47 34.05013 -118.12673 2659 ft 228 kts 83°
2026-05-04 03:47 34.05206 -118.10758 2633 ft 233 kts 83°
2026-05-04 03:48 34.05380 -118.08814 2578 ft 230 kts 91°
2026-05-04 03:48 34.04886 -118.07071 2587 ft 219 kts 133°
2026-05-04 03:48 34.03619 -118.06195 2583 ft 210 kts 176°
2026-05-04 03:48 34.02248 -118.06586 2596 ft 207 kts 219°
2026-05-04 03:49 34.01246 -118.07836 2599 ft 208 kts 231°
2026-05-04 03:49 34.00324 -118.09173 2603 ft 209 kts 231°
2026-05-04 03:49 33.99390 -118.10539 2601 ft 212 kts 231°
2026-05-04 03:49 33.98482 -118.11921 2592 ft 213 kts 239°
2026-05-04 03:50 33.98036 -118.13601 2619 ft 210 kts 260°
2026-05-04 03:50 33.97780 -118.15345 2601 ft 211 kts 261°
2026-05-04 03:50 33.97570 -118.17090 2599 ft 210 kts 263°
2026-05-04 03:50 33.97388 -118.18818 2595 ft 209 kts 263°
2026-05-04 03:51 33.97208 -118.20580 2599 ft 208 kts 263°
2026-05-04 03:51 33.97033 -118.22301 2606 ft 205 kts 263°
2026-05-04 03:51 33.96866 -118.23945 2607 ft 189 kts 262°
2026-05-04 03:51 33.96710 -118.25474 2598 ft 179 kts 263°
2026-05-04 03:52 33.96557 -118.26975 2616 ft 184 kts 263°
2026-05-04 03:52 33.96404 -118.28537 2592 ft 192 kts 263°
2026-05-04 03:52 33.96243 -118.30127 2450 ft 193 kts 263°
2026-05-04 03:52 33.96079 -118.31713 2209 ft 188 kts 263°
2026-05-04 03:53 33.95918 -118.33274 1778 ft 188 kts 263°
2026-05-04 03:53 33.95758 -118.34834 1278 ft 186 kts 263°
2026-05-04 03:53 33.95603 -118.36347 812 ft 179 kts 264°
2026-05-04 03:53 33.95457 -118.37772 558 ft 163 kts 262°
2026-05-04 03:54 33.95324 -118.39061 365 ft 149 kts 264°
2026-05-04 03:54 33.95201 -118.40269 162 ft 142 kts 263°
2026-05-04 03:54 33.95091 -118.41337 120 ft 107 kts 264°
2026-05-04 03:54 33.95038 -118.41848 124 ft 31 kts 263°
2026-05-04 03:55 33.95014 -118.42095 122 ft 29 kts 263°
2026-05-04 03:55 33.94990 -118.42330 120 ft 27 kts 262°
2026-05-04 03:55 33.94933 -118.42554 122 ft 28 kts 240°
2026-05-04 03:55 33.94810 -118.42722 124 ft 26 kts 215°
2026-05-04 03:56 33.94650 -118.42783 122 ft 14 kts 183°
2026-05-04 03:56 33.94645 -118.42783 122 ft 0 kts 183°
2026-05-04 03:57 33.94641 -118.42780 123 ft 3 kts 156°
2026-05-04 03:58 33.94646 -118.42617 121 ft 18 kts 83°
2026-05-04 03:58 33.94658 -118.42473 123 ft 17 kts 84°
2026-05-04 03:58 33.94670 -118.42337 123 ft 16 kts 83°
2026-05-04 03:59 33.94683 -118.42202 125 ft 16 kts 82°
2026-05-04 03:59 33.94698 -118.42078 125 ft 15 kts 82°
2026-05-04 03:59 33.94713 -118.41954 125 ft 14 kts 82°
2026-05-04 03:59 33.94726 -118.41839 123 ft 14 kts 82°
2026-05-04 04:00 33.94738 -118.41726 125 ft 13 kts 83°
2026-05-04 04:00 33.94749 -118.41618 122 ft 13 kts 83°
2026-05-04 04:00 33.94760 -118.41513 125 ft 12 kts 83°
2026-05-04 04:00 33.94775 -118.41412 124 ft 12 kts 75°
2026-05-04 04:01 33.94797 -118.41295 125 ft 19 kts 81°
2026-05-04 04:01 33.94811 -118.41134 125 ft 19 kts 83°
2026-05-04 04:01 33.94827 -118.40977 125 ft 19 kts 84°
2026-05-04 04:01 33.94841 -118.40828 125 ft 18 kts 81°
2026-05-04 04:02 33.94858 -118.40684 125 ft 15 kts 82°
2026-05-04 04:02 33.94817 -118.40600 123 ft 12 kts 146°
2026-05-04 04:02 33.94792 -118.40508 123 ft 12 kts 83°
2026-05-04 04:02 33.94797 -118.40466 125 ft 1 kts 81°
2026-05-04 04:03 33.94799 -118.40456 125 ft 2 kts 79°
2026-05-04 04:03 33.94807 -118.40424 122 ft 5 kts 67°
2026-05-04 04:03 33.94810 -118.40379 125 ft 6 kts 105°
2026-05-04 04:03 33.94774 -118.40364 125 ft 6 kts 199°
2026-05-04 04:04 33.94742 -118.40384 125 ft 0 kts 207°
2026-05-04 04:04 33.94740 -118.40385 125 ft 0 kts 208°